SCP
0 0 0 0 0 0 0 0 0 0 0 0 0 0 0 0 0 0 0 0 0 0
0 0 0 0 0 0 0 0 0 0 0 0 0 0 0 0 0 0 0 0 -0 -0
0 0 0 0 0 0 0 0 0 0 0 0 0 0 0 0 0 0 -0 -0 0 0
0 0 0 0 0 0 0 0 0 0 0 0 0 0 0 0 0 0 0 -0 0 0
0 0 0 0 0 0 0 0 0 0 0 0 0 0 0 0 0 0 0 0 0 0
0 0 0 0 0 0 0 0 0 0 0 0 0 0 0 0 0 0 0 0 0 0
0 0 0 0 0 0 0 0 0 0 0 0 0 0 0 0 0 0 0 0 0 0
0 0 0 0 0 0 0 0 0 0 0 0 0 0 0 0 0 0 0 0 0 0
0 0 0 0 0 0 0 0 0 0 0 0 0 0 0 0 0 0 0 0 0 0
0 0 0 0 0 0 0 0 0 0 0 0 0 0 0 0 0 0 0 0 0 0
0 0 0 0 0 0 0 0 0 0 0 0 0 0 0 0 0 0 0 0 0 0
0 0 0 0 0 0 0 0 0 0 0 0 0 0 0 0 0 0 0 0 0 0
0 0 0 0 0 0 0 0 0 0 0 0 0 0 0 0 0 0 0 0 0 0
0 0 0 0 0 0 0 0 0 0 0 0 0 0 0 0 0 0 0 0 0 0
Wind_Speed_500mb
31 28 24 24 22 19 18 14 8 6 8 11 13 16 15 18 18 19 21 24 23 19
30 30 29 30 25 24 21 12 11 10 12 14 17 17 16 18 18 20 19 20 23 20
34 32 29 24 25 23 22 20 16 16 16 17 19 19 14 16 18 18 16 15 19 21
35 32 30 28 29 27 23 22 21 20 19 18 19 19 18 16 18 16 15 12 18 22
36 34 33 31 31 29 28 27 26 25 23 21 20 20 23 20 17 16 14 9 13 21
40 36 35 35 35 31 32 32 29 27 26 24 21 20 18 18 18 17 15 10 11 13
42 40 39 38 36 36 35 35 33 31 30 26 24 24 19 15 15 14 11 10 11 12
45 43 41 40 40 40 38 39 41 36 31 30 29 29 28 25 20 15 12 9 11 10
48 49 47 44 45 47 46 41 39 37 35 29 27 26 24 25 23 19 15 10 7 8
54 53 52 48 48 49 47 44 44 36 33 32 31 28 25 20 18 15 12 8 4 3
59 53 51 49 48 49 48 45 40 38 35 34 32 29 24 20 17 15 12 8 4 2
62 56 53 52 51 50 45 41 39 37 37 36 34 30 26 22 19 13 10 8 6 4
63 56 57 55 51 46 42 37 33 32 30 31 33 32 27 23 19 11 11 10 8 6
59 61 61 49 51 50 45 40 41 38 39 43 33 32 29 25 24 25 20 15 16 8
Wind_Direction_500mb
189 180 181 173 192 174 197 218 187 174 141 119 114 103 92 91 80 78 74 87 82 53
175 184 188 191 192 190 204 207 183 170 148 136 124 111 113 101 94 85 71 84 98 86
190 196 200 195 197 195 184 194 177 166 152 140 128 119 107 106 98 96 83 83 92 99
194 197 198 195 196 200 187 181 173 166 153 144 137 139 133 120 113 107 98 82 101 83
198 198 195 197 193 194 183 176 175 169 160 154 152 146 144 150 137 129 121 125 115 122
200 198 197 194 195 185 184 178 174 170 165 163 158 153 151 147 147 145 147 142 113 103
204 198 198 194 190 185 185 179 174 180 180 173 169 160 150 157 152 148 146 121 101 94
201 195 199 194 187 185 188 184 188 188 179 177 177 175 171 172 168 159 144 127 113 95
200 195 200 197 190 190 192 193 187 187 192 192 187 185 190 184 180 171 163 146 110 94
201 196 203 198 194 192 194 190 192 194 192 191 190 189 192 194 183 172 165 151 137 97
198 191 202 196 190 192 193 194 194 194 194 194 194 191 192 192 188 182 176 172 171 196
200 191 195 191 192 194 190 194 192 196 197 199 197 195 195 197 191 187 190 191 208 237
201 189 193 192 195 188 191 191 190 197 198 212 198 199 199 204 193 238 215 210 214 252
200 190 200 187 193 189 189 185 190 199 193 212 213 204 203 202 204 188 232 260 273 245
Wind_Speed_850mb
31 28 24 24 22 19 18 14 8 6 8 11 13 16 15 18 18 19 21 24 23 19
30 30 29 30 25 24 21 12 11 10 12 14 17 17 16 18 18 20 19 20 23 20
34 32 29 24 25 23 22 20 16 16 16 17 19 19 14 16 18 18 16 15 19 21
35 32 30 28 29 27 23 22 21 20 19 18 19 19 18 16 18 16 15 12 18 22
36 34 33 31 31 29 28 27 26 25 23 21 20 20 23 20 17 16 14 9 13 21
40 36 35 35 35 31 32 32 29 27 26 24 21 20 18 18 18 17 15 10 11 13
42 40 39 38 36 36 35 35 33 31 30 26 24 24 19 15 15 14 11 10 11 12
45 43 41 40 40 40 38 39 41 36 31 30 29 29 28 25 20 15 12 9 11 10
48 49 47 44 45 47 46 41 39 37 35 29 27 26 24 25 23 19 15 10 7 8
54 53 52 48 48 49 47 44 44 36 33 32 31 28 25 20 18 15 12 8 4 3
59 53 51 49 48 49 48 45 40 38 35 34 32 29 24 20 17 15 12 8 4 2
62 56 53 52 51 50 45 41 39 37 37 36 34 30 26 22 19 13 10 8 6 4
63 56 57 55 51 46 42 37 33 32 30 31 33 32 27 23 19 11 11 10 8 6
59 61 61 49 51 50 45 40 41 38 39 43 33 32 29 25 24 25 20 15 16 8
Wind_Direction_850mb
189 180 181 173 192 174 197 218 187 174 141 119 114 103 92 91 80 78 74 87 82 53
175 184 188 191 192 190 204 207 183 170 148 136 124 111 113 101 94 85 71 84 98 86
190 196 200 195 197 195 184 194 177 166 152 140 128 119 107 106 98 96 83 83 92 99
194 197 198 195 196 200 187 181 173 166 153 144 137 139 133 120 113 107 98 82 101 83
198 198 195 197 193 194 183 176 175 169 160 154 152 146 144 150 137 129 121 125 115 122
200 198 197 194 195 185 184 178 174 170 165 163 158 153 151 147 147 145 147 142 113 103
204 198 198 194 190 185 185 179 174 180 180 173 169 160 150 157 152 148 146 121 101 94
201 195 199 194 187 185 188 184 188 188 179 177 177 175 171 172 168 159 144 127 113 95
200 195 200 197 190 190 192 193 187 187 192 192 187 185 190 184 180 171 163 146 110 94
201 196 203 198 194 192 194 190 192 194 192 191 190 189 192 194 183 172 165 151 137 97
198 191 202 196 190 192 193 194 194 194 194 194 194 191 192 192 188 182 176 172 171 196
200 191 195 191 192 194 190 194 192 196 197 199 197 195 195 197 191 187 190 191 208 237
201 189 193 192 195 188 191 191 190 197 198 212 198 199 199 204 193 238 215 210 214 252
200 190 200 187 193 189 189 185 190 199 193 212 213 204 203 202 204 188 232 260 273 245